User: anonymous   Login
Location: Prairie State College
(41.5244°N, 87.6382°W)
Time: 05:31:02
(UTC-05:00)
Language:

Cosmos 1943 - Orbit

View from above orbital plane
View from above orbital plane
View from above satellite
View from above satellite

Ground track
Ground track

The orbit data is extracted from the following two-line orbital elements,

1 19119U 88039A   15116.85300692  .00000330  00000-0  19469-3 0  9994
2 19119 071.0034 304.5893 0011430 177.7694 277.8556 14.15012996391427
Epoch (UTC): 26 April 2015 20:28:19
Eccentricity: 0.0011430
inclination: 71.0034°
perigee height: 834 km
apogee height: 850 km
right ascension of ascending node: 304.5893°
argument of perigee: 177.7694°
revolutions per day: 14.15012996
mean anomaly at epoch: 277.8556°
orbit number at epoch: 39142

The dashed part of the orbit path shows where the satellite is in the earth's shadow,  

DLR